| time (UTC) | temp F | wind direction | speed MPH | gust MPH | rain 1hr in | rain 24hr in | rain mn in | humidity % | barometer mb |
| 20260504042027 | 52 | 250 | 3.0 | 7.0 | 0.00 | 0.00 | 0.00 | 39 | 1009.6 |
| 20260504041538 | 52 | 245 | 3.0 | 7.0 | 0.00 | 0.00 | 0.00 | 39 | 1009.7 |
| 20260504041025 | 52 | 235 | 3.0 | 8.0 | 0.00 | 0.00 | 0.00 | 39 | 1009.7 |
| 20260504040524 | 52 | 221 | 3.0 | 9.0 | 0.00 | 0.00 | 0.00 | 39 | 1009.7 |
| 20260504040024 | 53 | 228 | 4.0 | 9.0 | 0.00 | 0.00 | 0.00 | 39 | 1009.8 |
| 20260504035523 | 53 | 240 | 5.0 | 12.0 | 0.00 | 0.00 | 0.00 | 39 | 1009.8 |
| 20260504035023 | 53 | 236 | 7.0 | 12.0 | 0.00 | 0.00 | 0.00 | 38 | 1009.7 |
| 20260504034523 | 53 | 234 | 5.0 | 11.0 | 0.00 | 0.00 | 0.00 | 39 | 1009.7 |
| 20260504034021 | 53 | 242 | 4.0 | 16.0 | 0.00 | 0.00 | 0.00 | 39 | 1009.7 |
| 20260504033521 | 53 | 241 | 8.0 | 16.0 | 0.00 | 0.00 | 0.00 | 39 | 1009.6 |
| 20260504033021 | 52 | 257 | 5.0 | 12.0 | 0.00 | 0.00 | 0.00 | 40 | 1009.7 |
| 20260504032522 | 52 | 250 | 6.0 | 12.0 | 0.00 | 0.00 | 0.00 | 40 | 1009.8 |
| 20260504032024 | 53 | 259 | 5.0 | 13.0 | 0.00 | 0.00 | 0.00 | 40 | 1009.7 |
| 20260504031522 | 53 | 190 | 4.0 | 10.0 | 0.00 | 0.00 | 0.00 | 39 | 1009.8 |
| 20260504031021 | 53 | 277 | 5.0 | 12.0 | 0.00 | 0.00 | 0.00 | 39 | 1009.7 |
| 20260504030521 | 53 | 216 | 3.0 | 12.0 | 0.00 | 0.00 | 0.00 | 39 | 1009.7 |
| 20260504030021 | 53 | 245 | 5.0 | 13.0 | 0.00 | 0.00 | 0.00 | 39 | 1009.7 |
| 20260504025520 | 53 | 233 | 7.0 | 13.0 | 0.00 | 0.00 | 0.00 | 39 | 1009.7 |
| 20260504025020 | 53 | 242 | 6.0 | 15.0 | 0.00 | 0.00 | 0.00 | 39 | 1009.7 |
| 20260504024520 | 53 | 239 | 8.0 | 15.0 | 0.00 | 0.00 | 0.00 | 39 | 1009.7 |
| 20260504024020 | 53 | 264 | 9.0 | 15.0 | 0.00 | 0.00 | 0.00 | 39 | 1009.8 |
| 20260504023519 | 53 | 270 | 9.0 | 16.0 | 0.00 | 0.00 | 0.00 | 39 | 1009.9 |
| 20260504023020 | 54 | 233 | 9.0 | 20.0 | 0.00 | 0.00 | 0.00 | 38 | 1010.0 |
| 20260504022522 | 54 | 276 | 9.0 | 22.0 | 0.00 | 0.00 | 0.00 | 38 | 1009.9 |
| 20260504022018 | 54 | 245 | 11.0 | 19.0 | 0.00 | 0.00 | 0.00 | 38 | 1010.0 |
| 20260504021518 | 54 | 270 | 8.0 | 18.0 | 0.00 | 0.00 | 0.00 | 38 | 1010.1 |
| 20260504021018 | 54 | 233 | 10.0 | 23.0 | 0.00 | 0.00 | 0.00 | 37 | 1010.1 |
| 20260504020518 | 54 | 248 | 8.0 | 21.0 | 0.00 | 0.00 | 0.00 | 38 | 1010.1 |
| 20260504020031 | 54 | 265 | 7.0 | 21.0 | 0.00 | 0.00 | 0.00 | 37 | 1010.1 |
| 20260504015518 | 53 | 269 | 7.0 | 11.0 | 0.00 | 0.00 | 0.00 | 38 | 1010.2 |
| 20260504015018 | 53 | 271 | 5.0 | 13.0 | 0.00 | 0.00 | 0.00 | 38 | 1010.2 |
| 20260504014521 | 53 | 295 | 5.0 | 14.0 | 0.00 | 0.00 | 0.00 | 39 | 1010.1 |
| 20260504014019 | 53 | 259 | 6.0 | 13.0 | 0.00 | 0.00 | 0.00 | 38 | 1010.2 |
| 20260504013517 | 53 | 255 | 7.0 | 15.0 | 0.00 | 0.00 | 0.00 | 38 | 1010.0 |
| 20260504013017 | 53 | 284 | 9.0 | 15.0 | 0.00 | 0.00 | 0.00 | 38 | 1010.0 |
| 20260504012517 | 53 | 255 | 9.0 | 22.0 | 0.00 | 0.00 | 0.00 | 39 | 1010.1 |
| 20260504012118 | 53 | 285 | 7.0 | 22.0 | 0.00 | 0.00 | 0.00 | 39 | 1010.2 |
| 20260504011517 | 53 | 248 | 11.0 | 20.0 | 0.00 | 0.00 | 0.00 | 38 | 1010.2 |
| 20260504011016 | 53 | 268 | 9.0 | 24.0 | 0.00 | 0.00 | 0.00 | 38 | 1010.3 |
| 20260504010516 | 53 | 219 | 10.0 | 24.0 | 0.00 | 0.00 | 0.00 | 39 | 1010.2 |
| 20260504010016 | 53 | 278 | 7.0 | 15.0 | 0.00 | 0.00 | 0.00 | 40 | 1010.3 |
| 20260504005515 | 52 | 300 | 8.0 | 19.0 | 0.00 | 0.00 | 0.00 | 40 | 1010.3 |
| 20260504005015 | 52 | 283 | 8.0 | 21.0 | 0.00 | 0.00 | 0.00 | 41 | 1010.4 |
| 20260504004516 | 53 | 269 | 10.0 | 22.0 | 0.00 | 0.00 | 0.00 | 40 | 1010.5 |
| 20260504004014 | 53 | 278 | 14.0 | 26.0 | 0.00 | 0.00 | 0.00 | 40 | 1010.5 |
| 20260504003514 | 53 | 274 | 13.0 | 26.0 | 0.00 | 0.00 | 0.00 | 37 | 1010.5 |
| 20260504003014 | 53 | 289 | 8.0 | 15.0 | 0.00 | 0.00 | 0.00 | 36 | 1010.4 |
| 20260504002514 | 53 | 276 | 10.0 | 20.0 | 0.00 | 0.00 | 0.00 | 36 | 1010.3 |
| 20260504002015 | 53 | 266 | 8.0 | 18.0 | 0.00 | 0.00 | 0.00 | 35 | 1010.2 |
| 20260504001522 | 53 | 285 | 8.0 | 20.0 | 0.00 | 0.00 | 0.00 | 35 | 1010.1 |
| 20260504001014 | 53 | 239 | 7.0 | 18.0 | 0.00 | 0.00 | 0.00 | 36 | 1010.0 |
| 20260504000515 | 53 | 289 | 9.0 | 18.0 | 0.00 | 0.00 | 0.00 | 35 | 1010.1 |
| 20260504000012 | 53 | 259 | 6.0 | 21.0 | 0.00 | 0.00 | 0.00 | 36 | 1010.1 |
| 20260503235512 | 53 | 288 | 10.0 | 21.0 | 0.00 | 0.00 | 0.00 | 36 | 1010.2 |
| 20260503235012 | 53 | 269 | 10.0 | 25.0 | 0.00 | 0.00 | 0.00 | 36 | 1010.2 |
| 20260503234512 | 53 | 317 | 12.0 | 25.0 | 0.00 | 0.00 | 0.00 | 36 | 1010.3 |
| 20260503234013 | 53 | 261 | 9.0 | 23.0 | 0.00 | 0.00 | 0.00 | 36 | 1010.5 |
| 20260503233512 | 54 | 262 | 10.0 | 23.0 | 0.00 | 0.00 | 0.00 | 35 | 1010.3 |
| 20260503233018 | 54 | 250 | 10.0 | 27.0 | 0.00 | 0.00 | 0.00 | 35 | 1010.2 |
| 20260503232514 | 54 | 297 | 13.0 | 27.0 | 0.00 | 0.00 | 0.00 | 34 | 1010.1 |
| 20260503232011 | 54 | 290 | 8.0 | 16.0 | 0.00 | 0.00 | 0.00 | 37 | 1010.1 |
| 20260503231512 | 54 | 275 | 7.0 | 23.0 | 0.00 | 0.00 | 0.00 | 36 | 1010.0 |
| 20260503231011 | 55 | 279 | 11.0 | 26.0 | 0.00 | 0.00 | 0.00 | 34 | 1009.9 |
| 20260503230513 | 55 | 267 | 11.0 | 26.0 | 0.00 | 0.00 | 0.00 | 33 | 1010.0 |
| 20260503230025 | 55 | 273 | 8.0 | 23.0 | 0.00 | 0.00 | 0.00 | 32 | 1009.9 |
| 20260503225509 | 55 | 242 | 9.0 | 19.0 | 0.00 | 0.00 | 0.00 | 31 | 1009.7 |
| 20260503225009 | 55 | 271 | 11.0 | 19.0 | 0.00 | 0.00 | 0.00 | 30 | 1009.8 |
| 20260503224509 | 55 | 262 | 6.0 | 16.0 | 0.00 | 0.00 | 0.00 | 30 | 1009.8 |
| 20260503224011 | 55 | 274 | 8.0 | 21.0 | 0.00 | 0.00 | 0.00 | 31 | 1009.8 |
| 20260503223511 | 55 | 299 | 10.0 | 21.0 | 0.00 | 0.00 | 0.00 | 30 | 1009.8 |
| 20260503223009 | 55 | 266 | 11.0 | 18.0 | 0.00 | 0.00 | 0.00 | 31 | 1009.9 |
| 20260503222509 | 55 | 311 | 8.0 | 18.0 | 0.00 | 0.00 | 0.00 | 31 | 1009.9 |
| 20260503222007 | 55 | 285 | 8.0 | 18.0 | 0.00 | 0.00 | 0.00 | 31 | 1009.8 |
| 20260503221508 | 55 | 330 | 9.0 | 18.0 | 0.00 | 0.00 | 0.00 | 30 | 1009.8 |
| 20260503221007 | 55 | 292 | 7.0 | 15.0 | 0.00 | 0.00 | 0.00 | 32 | 1009.8 |
| 20260503220507 | 55 | 287 | 8.0 | 15.0 | 0.00 | 0.00 | 0.00 | 32 | 1009.9 |
| 20260503220008 | 55 | 318 | 6.0 | 19.0 | 0.00 | 0.00 | 0.00 | 32 | 1009.9 |
| 20260503215507 | 55 | 345 | 8.0 | 19.0 | 0.00 | 0.00 | 0.00 | 30 | 1009.9 |
| 20260503215006 | 55 | 305 | 9.0 | 16.0 | 0.00 | 0.00 | 0.00 | 31 | 1009.9 |
| 20260503214519 | 56 | 333 | 10.0 | 18.0 | 0.00 | 0.00 | 0.00 | 30 | 1009.8 |
| 20260503214010 | 56 | 275 | 10.0 | 19.0 | 0.00 | 0.00 | 0.00 | 30 | 1009.9 |
| 20260503213505 | 56 | 283 | 7.0 | 19.0 | 0.00 | 0.00 | 0.00 | 31 | 1009.8 |
| 20260503213005 | 56 | 283 | 7.0 | 18.0 | 0.00 | 0.00 | 0.00 | 29 | 1009.8 |
| 20260503212508 | 56 | 283 | 8.0 | 19.0 | 0.00 | 0.00 | 0.00 | 31 | 1009.7 |
| 20260503212004 | 56 | 282 | 9.0 | 19.0 | 0.00 | 0.00 | 0.00 | 30 | 1009.7 |
| 20260503211504 | 57 | 275 | 8.0 | 14.0 | 0.00 | 0.00 | 0.00 | 32 | 1009.7 |
| 20260503211002 | 56 | 311 | 7.0 | 13.0 | 0.00 | 0.00 | 0.00 | 33 | 1009.7 |
| 20260503210502 | 55 | 255 | 5.0 | 9.0 | 0.00 | 0.00 | 0.00 | 33 | 1009.9 |
| 20260503210001 | 55 | 280 | 5.0 | 9.0 | 0.00 | 0.00 | 0.00 | 32 | 1009.8 |
| 20260503205600 | 55 | 233 | 3.0 | 11.0 | 0.00 | 0.00 | 0.00 | 32 | 1009.8 |
| 20260503205100 | 55 | 359 | 6.0 | 14.0 | 0.00 | 0.00 | 0.00 | 32 | 1010.0 |
| 20260503204620 | 55 | 309 | 5.0 | 14.0 | 0.00 | 0.00 | 0.00 | 33 | 1010.0 |
| 20260503204057 | 55 | 287 | 5.0 | 13.0 | 0.00 | 0.00 | 0.00 | 33 | 1010.1 |
| 20260503203557 | 55 | 252 | 6.0 | 13.0 | 0.00 | 0.00 | 0.00 | 33 | 1010.1 |
| 20260503203101 | 55 | 300 | 4.0 | 14.0 | 0.00 | 0.00 | 0.00 | 34 | 1010.2 |
| 20260503202556 | 54 | 268 | 7.0 | 14.0 | 0.00 | 0.00 | 0.00 | 33 | 1010.2 |
| 20260503202058 | 54 | 283 | 4.0 | 8.0 | 0.00 | 0.00 | 0.00 | 36 | 1010.4 |
| 20260503201555 | 54 | 260 | 3.0 | 13.0 | 0.00 | 0.00 | 0.00 | 33 | 1010.4 |
| 20260503201054 | 54 | 259 | 7.0 | 13.0 | 0.00 | 0.00 | 0.00 | 33 | 1010.4 |
| 20260503200554 | 53 | 251 | 8.0 | 13.0 | 0.00 | 0.00 | 0.00 | 33 | 1010.6 |
| 20260503200053 | 53 | 274 | 7.0 | 14.0 | 0.00 | 0.00 | 0.00 | 35 | 1010.9 |
| 20260503195552 | 54 | 272 | 9.0 | 14.0 | 0.00 | 0.00 | 0.00 | 33 | 1010.9 |
| 20260503195051 | 54 | 263 | 6.0 | 14.0 | 0.00 | 0.00 | 0.00 | 32 | 1011.1 |
| 20260503194551 | 54 | 307 | 6.0 | 14.0 | 0.00 | 0.00 | 0.00 | 33 | 1011.1 |
| 20260503194050 | 55 | 262 | 6.0 | 14.0 | 0.00 | 0.00 | 0.00 | 33 | 1011.1 |
| 20260503193551 | 54 | 289 | 7.0 | 13.0 | 0.00 | 0.00 | 0.00 | 32 | 1011.2 |
| 20260503193056 | 54 | 273 | 4.0 | 13.0 | 0.00 | 0.00 | 0.00 | 35 | 1011.2 |
| 20260503192549 | 54 | 295 | 5.0 | 12.0 | 0.00 | 0.00 | 0.00 | 34 | 1011.3 |
| 20260503192048 | 53 | 263 | 5.0 | 13.0 | 0.00 | 0.00 | 0.00 | 35 | 1011.4 |
| 20260503191606 | 53 | 248 | 6.0 | 13.0 | 0.00 | 0.00 | 0.00 | 35 | 1011.5 |
| 20260503191046 | 53 | 294 | 7.0 | 16.0 | 0.00 | 0.00 | 0.00 | 33 | 1011.7 |
| 20260503190546 | 53 | 322 | 9.0 | 16.0 | 0.00 | 0.00 | 0.00 | 34 | 1011.7 |
| 20260503190045 | 53 | 257 | 7.0 | 18.0 | 0.00 | 0.00 | 0.00 | 35 | 1011.7 |
| 20260503185544 | 54 | 238 | 8.0 | 18.0 | 0.00 | 0.00 | 0.00 | 34 | 1011.7 |
| 20260503185044 | 53 | 256 | 9.0 | 18.0 | 0.00 | 0.00 | 0.00 | 33 | 1012.1 |
| 20260503184543 | 53 | 245 | 8.0 | 17.0 | 0.00 | 0.00 | 0.00 | 35 | 1012.0 |
| 20260503184046 | 52 | 261 | 9.0 | 17.0 | 0.00 | 0.00 | 0.00 | 35 | 1011.9 |
| 20260503183541 | 52 | 309 | 7.0 | 15.0 | 0.00 | 0.00 | 0.00 | 34 | 1012.2 |
| 20260503183041 | 52 | 280 | 7.0 | 19.0 | 0.00 | 0.00 | 0.00 | 32 | 1012.3 |
| 20260503182541 | 52 | 239 | 10.0 | 15.0 | 0.00 | 0.00 | 0.00 | 32 | 1012.3 |
| 20260503182043 | 52 | 293 | 6.0 | 14.0 | 0.00 | 0.00 | 0.00 | 33 | 1012.4 |
| 20260503181640 | 52 | 252 | 8.0 | 16.0 | 0.00 | 0.00 | 0.00 | 34 | 1012.4 |
| 20260503181039 | 52 | 236 | 8.0 | 16.0 | 0.00 | 0.00 | 0.00 | 32 | 1012.5 |
| 20260503180539 | 52 | 279 | 7.0 | 15.0 | 0.00 | 0.00 | 0.00 | 31 | 1012.4 |
| 20260503180042 | 52 | 274 | 8.0 | 15.0 | 0.00 | 0.00 | 0.00 | 31 | 1012.5 |
| 20260503175537 | 53 | 276 | 6.0 | 15.0 | 0.00 | 0.00 | 0.00 | 33 | 1012.4 |
| 20260503175037 | 53 | 317 | 7.0 | 14.0 | 0.00 | 0.00 | 0.00 | 34 | 1012.5 |
| 20260503174545 | 53 | 242 | 8.0 | 13.0 | 0.00 | 0.00 | 0.00 | 37 | 1012.6 |
| 20260503174036 | 52 | 274 | 8.0 | 13.0 | 0.00 | 0.00 | 0.00 | 33 | 1012.7 |
| 20260503173536 | 52 | 283 | 6.0 | 13.0 | 0.00 | 0.00 | 0.00 | 36 | 1012.6 |
| 20260503173037 | 53 | 290 | 8.0 | 14.0 | 0.00 | 0.00 | 0.00 | 35 | 1012.6 |
| 20260503172535 | 52 | 252 | 10.0 | 14.0 | 0.00 | 0.00 | 0.00 | 32 | 1012.5 |
| 20260503172034 | 52 | 297 | 8.0 | 16.0 | 0.00 | 0.00 | 0.00 | 34 | 1012.6 |
| 20260503171533 | 52 | 279 | 7.0 | 17.0 | 0.00 | 0.00 | 0.00 | 34 | 1012.5 |
| 20260503171034 | 52 | 257 | 7.0 | 14.0 | 0.00 | 0.00 | 0.00 | 36 | 1012.6 |
| 20260503170533 | 52 | 266 | 7.0 | 16.0 | 0.00 | 0.00 | 0.00 | 37 | 1012.7 |
| 20260503150514 | 47 | 259 | 6.0 | 12.0 | 0.00 | 0.00 | 0.00 | 44 | 1014.2 |
| 20260503150115 | 47 | 300 | 5.0 | 12.0 | 0.00 | 0.00 | 0.00 | 44 | 1014.1 |
| 20260503131059 | 43 | 295 | 5.0 | 10.0 | 0.00 | 0.00 | 0.00 | 45 | 1015.0 |
| 20260503130558 | 43 | 302 | 5.0 | 9.0 | 0.00 | 0.00 | 0.00 | 48 | 1015.0 |
| 20260503110542 | 36 | 252 | 4.0 | 8.0 | 0.00 | 0.00 | 0.00 | 60 | 1014.5 |
| 20260503081534 | 35 | 255 | 3.0 | 7.0 | 0.00 | 0.00 | 0.00 | 65 | 1014.5 |
| 20260503081026 | 35 | 237 | 3.0 | 6.0 | 0.00 | 0.00 | 0.00 | 65 | 1014.5 |
| 20260503080525 | 35 | 230 | 3.0 | 6.0 | 0.00 | 0.00 | 0.00 | 64 | 1014.4 |
| 20260503072518 | 36 | 242 | 2.0 | 5.0 | 0.00 | 0.00 | 0.00 | 64 | 1014.4 |
| 20260503072017 | 36 | 234 | 2.0 | 4.0 | 0.00 | 0.00 | 0.00 | 63 | 1014.4 |
| 20260503071516 | 36 | 233 | 1.0 | 5.0 | 0.00 | 0.00 | 0.00 | 63 | 1014.5 |
| 20260503071015 | 36 | 226 | 2.0 | 6.0 | 0.00 | 0.00 | 0.00 | 63 | 1014.5 |
| 20260503070518 | 36 | 229 | 3.0 | 6.0 | 0.00 | 0.00 | 0.00 | 63 | 1014.4 |
| 20260503055004 | 37 | 233 | 4.0 | 8.0 | 0.00 | 0.00 | 0.00 | 61 | 1014.6 |
| 20260503054504 | 37 | 271 | 4.0 | 9.0 | 0.00 | 0.00 | 0.00 | 61 | 1014.6 |
| 20260503054006 | 37 | 271 | 4.0 | 9.0 | 0.00 | 0.00 | 0.00 | 61 | 1014.7 |
| 20260503053502 | 38 | 262 | 3.0 | 7.0 | 0.00 | 0.00 | 0.00 | 61 | 1014.8 |
| 20260503053002 | 38 | 245 | 3.0 | 6.0 | 0.00 | 0.00 | 0.00 | 60 | 1014.7 |
| 20260503052600 | 38 | 226 | 3.0 | 7.0 | 0.00 | 0.00 | 0.00 | 60 | 1014.7 |
| 20260503052100 | 38 | 264 | 4.0 | 7.0 | 0.00 | 0.00 | 0.00 | 60 | 1014.8 |
| 20260503051558 | 38 | 244 | 3.0 | 7.0 | 0.00 | 0.00 | 0.00 | 60 | 1014.9 |
| 20260503051100 | 38 | 265 | 3.0 | 8.0 | 0.00 | 0.00 | 0.00 | 60 | 1014.9 |
| 20260503050558 | 38 | 256 | 3.0 | 8.0 | 0.00 | 0.00 | 0.00 | 60 | 1015.1 |
| 20260503050057 | 38 | 242 | 3.0 | 6.0 | 0.00 | 0.00 | 0.00 | 60 | 1015.0 |
| 20260503045556 | 38 | 233 | 2.0 | 6.0 | 0.00 | 0.00 | 0.00 | 60 | 1015.0 |
| 20260503045054 | 38 | 265 | 3.0 | 7.0 | 0.00 | 0.00 | 0.00 | 60 | 1015.1 |
| 20260503044554 | 38 | 237 | 3.0 | 8.0 | 0.00 | 0.00 | 0.00 | 59 | 1015.1 |
| 20260503044053 | 38 | 255 | 3.0 | 8.0 | 0.00 | 0.00 | 0.00 | 60 | 1015.1 |
| 20260503043552 | 38 | 240 | 3.0 | 8.0 | 0.00 | 0.00 | 0.00 | 59 | 1015.1 |
| 20260503043056 | 38 | 316 | 2.0 | 8.0 | 0.00 | 0.00 | 0.00 | 60 | 1015.2 |
| 20260503042552 | 38 | 287 | 3.0 | 8.0 | 0.00 | 0.00 | 0.00 | 59 | 1015.2 |